• In Hungary
  • List of Countries
  • For 7 days
  • Water Temperature
  • Satellite Maps
  • Weather Map
  • News
  • Weather Widgets
  • user-avatar
    Login

    Hourly Weather Ilebo

    Today, 13 November, Tuesday

    Time Temperature Precipitation Wind Pressure Humidity
    00:00 +26°C° 0 mm 0 mps 721 mmHg 52%
    01:00 +26°C° 0 mm 0 mps 721 mmHg 53%
    02:00 +25°C° 0 mm 0 mps 721 mmHg 56%
    03:00 +25°C° 0 mm 0 mps 720 mmHg 58%
    04:00 +24°C° 0 mm 0 mps 720 mmHg 60%
    05:00 +25°C° 0 mm 0 mps 721 mmHg 59%
    06:00 +26°C° 0 mm 0 mps 721 mmHg 57%
    07:00 +27°C° 0 mm 0 mps 721 mmHg 56%
    08:00 +32°C° 0 mm 1 mps 721 mmHg 48%
    09:00 +35°C° 0 mm 1 mps 722 mmHg 40%
    10:00 +39°C° 0 mm 1 mps 722 mmHg 32%
    11:00 +39°C° 0 mm 2 mps 721 mmHg 30%
    12:00 +40°C° 0 mm 2 mps 720 mmHg 28%
    13:00 +40°C° 0 mm 2 mps 719 mmHg 26%
    14:00 +39°C° 0 mm 2 mps 719 mmHg 30%
    15:00 +36°C° 0 mm 1 mps 718 mmHg 33%
    16:00 +35°C° 0 mm 1 mps 718 mmHg 37%
    17:00 +34°C° 0 mm 1 mps 718 mmHg 39%
    18:00 +33°C° 0 mm 1 mps 719 mmHg 40%
    19:00 +32°C° 0 mm 1 mps 720 mmHg 42%
    20:00 +31°C° 0 mm 1 mps 720 mmHg 44%
    21:00 +30°C° 0 mm 1 mps 720 mmHg 45%
    22:00 +29°C° 0 mm 1 mps 720 mmHg 47%
    23:00 +29°C° 0 mm 1 mps 720 mmHg 48%

    Tomorrow, 14 November, Wednesday

    Time Temperature Precipitation Wind Pressure Humidity
    00:00 +26°C° 0 mm 0 mps 719 mmHg 49%
    01:00 +26°C° 0 mm 0 mps 719 mmHg 50%
    02:00 +25°C° 0 mm 0 mps 719 mmHg 52%
    03:00 +25°C° 0 mm 0 mps 719 mmHg 53%
    04:00 +24°C° 0 mm 0 mps 719 mmHg 54%
    05:00 +25°C° 0 mm 0 mps 719 mmHg 53%
    06:00 +28°C° 0 mm 1 mps 720 mmHg 53%
    07:00 +29°C° 0 mm 1 mps 721 mmHg 52%
    08:00 +31°C° 0 mm 1 mps 721 mmHg 45%
    09:00 +34°C° 0 mm 1 mps 721 mmHg 38%
    10:00 +37°C° 0 mm 1 mps 722 mmHg 30%
    11:00 +39°C° 0 mm 2 mps 721 mmHg 28%
    12:00 +39°C° 0 mm 2 mps 720 mmHg 25%
    13:00 +40°C° 0 mm 2 mps 719 mmHg 22%
    14:00 +40°C° 0 mm 2 mps 719 mmHg 23%
    15:00 +39°C° 0 mm 2 mps 718 mmHg 25%
    16:00 +39°C° 0 mm 1 mps 718 mmHg 27%
    17:00 +35°C° 0 mm 1 mps 718 mmHg 31%
    18:00 +33°C° 0 mm 1 mps 719 mmHg 35%
    19:00 +28°C° 0 mm 0 mps 719 mmHg 39%
    20:00 +27°C° 0 mm 0 mps 719 mmHg 40%
    21:00 +27°C° 0 mm 0 mps 720 mmHg 42%
    22:00 +26°C° 0 mm 0 mps 720 mmHg 43%
    23:00 +26°C° 0 mm 0 mps 720 mmHg 44%

    Day after tomorrow, 15 November, Thursday

    Time Temperature Precipitation Wind Pressure Humidity
    00:00 +25°C° 0 mm 0 mps 720 mmHg 45%
    01:00 +27°C° 0 mm 1 mps 719 mmHg 46%
    02:00 +26°C° 0 mm 1 mps 720 mmHg 51%
    03:00 +26°C° 0 mm 1 mps 720 mmHg 56%
    04:00 +25°C° 0 mm 2 mps 720 mmHg 61%
    05:00 +26°C° 0 mm 2 mps 721 mmHg 65%
    06:00 +26°C° 0 mm 2 mps 721 mmHg 69%
    07:00 +27°C° 0 mm 3 mps 722 mmHg 73%
    08:00 +29°C° 0 mm 3 mps 722 mmHg 66%
    09:00 +31°C° 0 mm 3 mps 723 mmHg 60%
    10:00 +34°C° 0 mm 2 mps 723 mmHg 53%
    11:00 +36°C° 0 mm 2 mps 722 mmHg 48%
    12:00 +37°C° 0 mm 2 mps 721 mmHg 42%
    13:00 +37°C° 0 mm 1 mps 720 mmHg 37%
    14:00 +37°C° 0 mm 1 mps 720 mmHg 38%
    15:00 +36°C° 0 mm 1 mps 719 mmHg 39%
    16:00 +34°C° 0 mm 0 mps 719 mmHg 40%
    17:00 +34°C° 0.2 mm 1 mps 720 mmHg 46%
    18:00 +32°C° 0.2 mm 1 mps 720 mmHg 53%
    19:00 +30°C° 0.2 mm 2 mps 721 mmHg 60%
    20:00 +29°C° 0.1 mm 2 mps 721 mmHg 67%
    21:00 +28°C° 0.1 mm 2 mps 722 mmHg 75%
    22:00 +27°C° 0.1 mm 2 mps 722 mmHg 82%
    23:00 +26°C° 0 mm 2 mps 722 mmHg 84%

    16 November, Friday

    Time Temperature Precipitation Wind Pressure Humidity
    00:00 +26°C° 0 mm 2 mps 721 mmHg 85%
    01:00 +26°C° 0 mm 2 mps 721 mmHg 86%
    02:00 +25°C° 0.1 mm 2 mps 721 mmHg 88%
    03:00 +25°C° 0.1 mm 2 mps 721 mmHg 90%
    04:00 +24°C° 0.1 mm 2 mps 721 mmHg 92%
    05:00 +25°C° 0.1 mm 2 mps 722 mmHg 88%
    06:00 +26°C° 0.1 mm 2 mps 723 mmHg 85%
    07:00 +27°C° 0.1 mm 2 mps 723 mmHg 82%
    08:00 +29°C° 0 mm 2 mps 724 mmHg 72%
    09:00 +32°C° 0 mm 2 mps 724 mmHg 61%
    10:00 +35°C° 0 mm 3 mps 724 mmHg 51%
    11:00 +36°C° 0.3 mm 2 mps 723 mmHg 48%
    12:00 +37°C° 0.3 mm 2 mps 722 mmHg 45%
    13:00 +36°C° 0.3 mm 1 mps 721 mmHg 42%
    14:00 +35°C° 0.1 mm 1 mps 721 mmHg 48%
    15:00 +33°C° 0.1 mm 1 mps 721 mmHg 54%
    16:00 +31°C° 0.1 mm 1 mps 721 mmHg 60%
    17:00 +30°C° 0.9 mm 2 mps 721 mmHg 66%
    18:00 +29°C° 0.9 mm 2 mps 721 mmHg 72%
    19:00 +28°C° 0.9 mm 2 mps 722 mmHg 78%
    20:00 +27°C° 2.3 mm 2 mps 722 mmHg 81%
    21:00 +26°C° 2.3 mm 1 mps 723 mmHg 85%
    22:00 +26°C° 2.3 mm 1 mps 723 mmHg 89%
    23:00 +25°C° 0.9 mm 1 mps 723 mmHg 90%

    17 November, Saturday

    Time Temperature Precipitation Wind Pressure Humidity
    00:00 +25°C° 0.9 mm 1 mps 723 mmHg 91%
    01:00 +25°C° 0.9 mm 1 mps 722 mmHg 92%
    02:00 +25°C° 0 mm 1 mps 722 mmHg 92%
    03:00 +24°C° 0 mm 1 mps 722 mmHg 92%
    04:00 +24°C° 0 mm 1 mps 722 mmHg 92%
    05:00 +25°C° 0 mm 1 mps 723 mmHg 90%
    06:00 +25°C° 0 mm 1 mps 723 mmHg 88%
    07:00 +26°C° 0 mm 2 mps 723 mmHg 86%
    08:00 +28°C° 0 mm 1 mps 723 mmHg 77%
    09:00 +29°C° 0 mm 1 mps 724 mmHg 69%
    10:00 +31°C° 0 mm 1 mps 724 mmHg 60%
    11:00 +33°C° 0 mm 1 mps 723 mmHg 53%
    12:00 +35°C° 0 mm 1 mps 722 mmHg 47%
    13:00 +35°C° 0 mm 0 mps 721 mmHg 41%
    14:00 +34°C° 0 mm 0 mps 721 mmHg 43%
    15:00 +33°C° 0 mm 0 mps 721 mmHg 45%
    16:00 +32°C° 0 mm 0 mps 720 mmHg 48%
    17:00 +32°C° 0.2 mm 1 mps 721 mmHg 55%
    18:00 +30°C° 0.2 mm 1 mps 721 mmHg 62%
    19:00 +28°C° 0.2 mm 2 mps 722 mmHg 68%
    20:00 +27°C° 0.2 mm 1 mps 722 mmHg 73%
    21:00 +27°C° 0.2 mm 1 mps 722 mmHg 77%
    22:00 +26°C° 0.2 mm 1 mps 722 mmHg 82%
    23:00 +26°C° 0.2 mm 1 mps 722 mmHg 83%

    18 November, Sunday

    Time Temperature Precipitation Wind Pressure Humidity
    00:00 +25°C° 0.2 mm 1 mps 722 mmHg 84%
    01:00 +25°C° 0.2 mm 1 mps 721 mmHg 86%
    02:00 +25°C° 0.1 mm 1 mps 721 mmHg 85%
    03:00 +25°C° 0.1 mm 1 mps 721 mmHg 85%
    04:00 +25°C° 0.1 mm 1 mps 721 mmHg 85%
    05:00 +26°C° 0 mm 1 mps 721 mmHg 82%
    06:00 +26°C° 0 mm 1 mps 722 mmHg 79%
    07:00 +27°C° 0 mm 1 mps 723 mmHg 77%
    08:00 +30°C° 0 mm 1 mps 723 mmHg 67%
    09:00 +33°C° 0 mm 1 mps 723 mmHg 57%
    10:00 +36°C° 0 mm 1 mps 723 mmHg 47%
    11:00 +37°C° 0 mm 1 mps 722 mmHg 43%
    12:00 +39°C° 0 mm 1 mps 721 mmHg 40%
    13:00 +40°C° 0 mm 1 mps 720 mmHg 36%
    14:00 +37°C° 0 mm 1 mps 720 mmHg 39%
    15:00 +34°C° 0 mm 0 mps 720 mmHg 42%
    16:00 +33°C° 0 mm 0 mps 720 mmHg 44%
    17:00 +33°C° 0 mm 1 mps 720 mmHg 50%
    18:00 +32°C° 0 mm 1 mps 720 mmHg 55%
    19:00 +30°C° 0 mm 1 mps 721 mmHg 60%
    20:00 +29°C° 0.2 mm 1 mps 721 mmHg 64%
    21:00 +28°C° 0.2 mm 1 mps 721 mmHg 68%
    22:00 +28°C° 0.2 mm 1 mps 721 mmHg 72%
    23:00 +27°C° 0 mm 1 mps 721 mmHg 74%
    Show more